Station VCAT2 - 8773259 - Port Lavaca, TX Image indicating link to RSS feed of recent meteorological observations for station VCAT2


Conditions at VCAT2 as of
(6:48 am CDT)
1148 GMT on 07/16/2024:
     

Click on the graph icon in the table below to see a time series plot of the last five days of that observation.

5-day plot - Wind Direction Wind Direction (WDIR): S ( 170 deg true )
5-day plot - Wind Speed Wind Speed (WSPD): 8.0 kts
5-day plot - Wind Gust Wind Gust (GST): 8.9 kts
5-day plot - Atmospheric Pressure Atmospheric Pressure (PRES):29.95 in
5-day plot - Air Temperature Air Temperature (ATMP): 82.6 °F
5-day plot - Water Temperature Water Temperature (WTMP): 84.4 °F
5-day plot -  Wind Speed, Wind Gust and Atmospheric Pressure Combined plot of Wind Speed, Gust, and Air Pressure
Previous observations
TIME
(CDT)
5-day plot - Wind Direction
WDIR
 
5-day plot - Wind Speed
WSPD
kts
5-day plot - Wind Gust
GST
kts
5-day plot - Wave Height
WVHT
ft
5-day plot - Dominant Wave Period
DPD
sec
5-day plot - Average Wave Period
APD
sec
5-day plot - Mean Wave Direction
MWD
 
5-day plot - Atmospheric Pressure
PRES
in
5-day plot - Pressure Tendency
PTDY
in
5-day plot - Air Temperature
ATMP
°F
5-day plot - Water Temperature
WTMP
°F
5-day plot - Dew Point
DEWP
°F
5-day plot - Salinity
SAL
psu
5-day plot - Visibility
VIS
nmi
5-day plot - Tide (above MLLW)
TIDE
ft
2024-07-16 06:42 am S 8.0 9.9----29.95- 82.8 84.6----
2024-07-16 06:36 am S 7.0 9.9----29.95- 82.6 84.7----
2024-07-16 06:30 am S 8.0 9.9----29.95- 82.6 84.9----
2024-07-16 06:24 am S 6.0 7.0----29.95- 82.0 85.1----
2024-07-16 06:18 am S 5.1 7.0----29.95- 81.7 85.1----
2024-07-16 06:12 am S 6.0 7.0----29.95- 81.5 85.1----
2024-07-16 06:06 amSSW 6.0 7.0----29.95- 81.5 85.1----
2024-07-16 06:00 amSSW 5.1 6.0----29.95+0.00 81.3 85.1----
2024-07-16 05:54 am SW 4.1 8.0----29.95- 81.3 85.1----
2024-07-16 05:48 amSSW 6.0 8.9----29.95- 82.0 85.3----
2024-07-16 05:42 am S 6.0 8.0----29.95- 82.2 85.3----
2024-07-16 05:36 am S 7.0 8.9----29.94- 82.4 85.3----
2024-07-16 05:30 am S 7.0 8.9----29.94- 82.4 85.3----
2024-07-16 05:24 am S 8.0 8.9----29.94- 82.4 85.3----
2024-07-16 05:18 am S 8.0 9.9----29.94- 82.4 85.3----
2024-07-16 05:12 am S 8.0 8.9----29.94- 82.4 85.5----
2024-07-16 05:06 am S 8.0 8.9----29.94- 82.6 85.5----
2024-07-16 05:00 am S 7.0 8.9----29.94-0.01 82.6 85.5----
2024-07-16 04:54 am S 7.0 9.9----29.94- 82.2 85.5----
2024-07-16 04:48 am S 8.0 8.9----29.94-- 85.5----
2024-07-16 04:42 am S 7.0 8.0----29.94-- 85.5----
2024-07-16 04:36 am S 8.0 8.9----29.94-- 85.5----
2024-07-16 04:30 am S 7.0 8.9----29.94- 82.0 85.6----
2024-07-16 04:24 am S 7.0 8.9----29.94- 82.2 85.6----
2024-07-16 04:18 am S 8.0 8.9----29.94- 82.2 85.6----
2024-07-16 04:12 am S 7.0 8.9----29.94- 82.0 85.6----
2024-07-16 04:06 am S 8.0 8.9----29.94- 82.4 85.6----
2024-07-16 04:00 am S 8.0 9.9----29.94-0.02 82.2 85.6----
2024-07-16 03:54 am S 8.0 8.9----29.94- 82.2 85.8----
2024-07-16 03:48 am S 8.0 9.9----29.94- 82.2 85.8----
2024-07-16 03:42 am S 8.0 9.9----29.94- 82.0 85.8----
2024-07-16 03:36 am S 8.9 8.9----29.94- 82.2 85.8----
2024-07-16 03:30 am S 8.0 9.9----29.94- 82.0 85.8----
2024-07-16 03:24 am S 8.9 11.1----29.94- 82.0 85.8----
2024-07-16 03:18 am S 9.9 12.0----29.94- 82.0 86.0----
2024-07-16 03:12 am S 9.9 11.1----29.94- 82.0 86.0----
2024-07-16 03:06 am S 11.1 12.0----29.94- 82.0 86.0----
2024-07-16 03:00 am S 11.1 12.0----29.94+0.00 82.0 86.0----
2024-07-16 02:54 am S 11.1 12.0----29.95- 82.0 86.0----
2024-07-16 02:48 am S 11.1 13.0----29.94-- 86.2----
2024-07-16 02:42 am S 9.9 13.0----29.95-- 86.2----
2024-07-16 02:36 am S 9.9 12.0----29.95-- 86.2----
2024-07-16 02:30 am S 11.1 12.0----29.95- 81.9 86.2----
2024-07-16 02:24 am S 9.9 12.0----29.95- 81.9 86.2----
2024-07-16 02:18 am S 11.1 12.0----29.95- 81.7 86.4----
2024-07-16 02:12 am S 9.9 11.1----29.95- 81.7 86.4----
2024-07-16 02:06 am S 9.9 12.0----29.95- 81.7 86.4----
2024-07-16 02:00 am S 9.9 13.0----29.95+0.00 81.9 86.4----
2024-07-16 01:54 am S 9.9 12.0----29.95- 82.0 86.4----
2024-07-16 01:48 am S 11.1 13.0----29.95- 82.0 86.5----
2024-07-16 01:42 am S 9.9 12.0----29.95- 82.0 86.5----
2024-07-16 01:36 am S 11.1 12.0----29.95- 82.2 86.5----
2024-07-16 01:30 am S 12.0 13.0----29.95- 82.2 86.5----
2024-07-16 01:24 am S 12.0 14.0----29.96- 82.4 86.5----
2024-07-16 01:18 am S 12.0 14.0----29.95- 82.6 86.5----
2024-07-16 01:12 am S 12.0 15.0----29.96- 82.8 86.7----
2024-07-16 01:06 am S 12.0 14.0----29.96- 82.8 86.7----
2024-07-16 01:00 am S 13.0 14.0----29.96+0.02 82.8 86.7----
2024-07-16 12:54 am S 13.0 14.0----29.95- 82.9 86.7----
2024-07-16 12:48 am S 12.0 14.0----29.95-- 86.7----
2024-07-16 12:42 amSSE 12.0 13.0----29.95-- 86.7----
2024-07-16 12:36 amSSE 11.1 13.0----29.95-- 86.7----
2024-07-16 12:30 am S 11.1 13.0----29.95- 82.4 86.7----
2024-07-16 12:24 am S 12.0 13.0----29.95- 82.6 86.7----
2024-07-16 12:18 amSSE 11.1 13.0----29.95- 82.2 86.7----
2024-07-16 12:12 amSSE 9.9 13.0----29.95- 82.4 86.7----
2024-07-16 12:06 am S 11.1 12.0----29.95- 82.2 86.7----
2024-07-16 12:00 am S 9.9 13.0----29.95+0.01 82.4 86.7----
2024-07-15 11:54 pmSSE 11.1 13.0----29.94- 82.4 86.7----
2024-07-15 11:48 pmSSE 11.1 13.0----29.94- 82.4 86.7----
2024-07-15 11:42 pmSSE 11.1 12.0----29.95- 82.4 86.7----
2024-07-15 11:36 pmSSE 11.1 12.0----29.94- 82.4 86.7----
2024-07-15 11:30 pmSSE 9.9 11.1----29.94- 82.6 86.7----
2024-07-15 11:24 pmSSE 9.9 12.0----29.94- 82.6 86.7----
2024-07-15 11:18 pmSSE 9.9 11.1----29.94- 82.4 86.7----
2024-07-15 11:12 pmSSE 9.9 12.0----29.95- 82.4 86.7----
2024-07-15 11:06 pmSSE 9.9 11.1----29.95- 82.2 86.9----
2024-07-15 11:00 pmSSE 9.9 11.1----29.95+0.01 82.4 86.9----
2024-07-15 10:54 pmSSE 8.0 9.9----29.95- 82.4 86.9----
2024-07-15 10:48 pmSSE 8.9 11.1----29.95-- 86.9----
2024-07-15 10:42 pmSSE 8.9 11.1----29.95-- 87.1----
2024-07-15 10:36 pmSSE 8.9 11.1----29.95-- 87.1----
2024-07-15 10:30 pmSSE 8.9 11.1----29.94- 82.4 87.3----
2024-07-15 10:24 pmSSE 11.1 12.0----29.94- 82.4 87.3----
2024-07-15 10:18 pmSSE 11.1 12.0----29.94- 82.4 87.3----
2024-07-15 10:12 pmSSE 9.9 11.1----29.93- 82.4 87.4----
2024-07-15 10:06 pmSSE 9.9 11.1----29.93- 82.6 87.4----
2024-07-15 10:00 pmSSE 9.9 12.0----29.93-0.01 82.6 87.6----
2024-07-15 09:54 pmSSE 11.1 12.0----29.93- 82.9 87.6----
2024-07-15 09:48 pmSSE 11.1 13.0----29.93- 82.8 87.8----
2024-07-15 09:42 pm S 12.0 14.0----29.93- 82.9 87.8----
2024-07-15 09:36 pmSSE 12.0 14.0----29.93- 82.8 88.0----
2024-07-15 09:30 pmSSE 13.0 14.0----29.93- 83.1 88.0----
2024-07-15 09:24 pm S 12.0 14.0----29.93- 83.1 88.2----
2024-07-15 09:18 pm S 12.0 13.0----29.93- 82.9 88.3----
2024-07-15 09:12 pm S 11.1 12.0----29.93- 83.3 88.3----
2024-07-15 09:06 pmSSE 9.9 13.0----29.93- 83.3 88.5----
2024-07-15 09:00 pm S 8.9 11.1----29.93+0.00 83.5 88.5----
2024-07-15 08:54 pmSSE 11.1 12.0----29.93- 83.7 88.7----
2024-07-15 08:48 pmSSE 11.1 14.0----29.93- 83.8 88.7----
2024-07-15 08:42 pm S 12.0 13.0----29.93- 83.8 88.7----
2024-07-15 08:36 pm S 13.0 14.0----29.93- 83.8 88.7----
2024-07-15 08:30 pmSSE 12.0 14.0----29.93- 83.8 88.7----
2024-07-15 08:24 pm S 14.0 15.9----29.94- 84.0 88.9----
2024-07-15 08:18 pm S 13.0 15.0----29.93- 84.0 88.9----
2024-07-15 08:12 pm S 12.0 15.0----29.93- 84.2 88.9----
2024-07-15 08:06 pm S 13.0 15.9----29.93- 84.6 88.9----
2024-07-15 08:00 pmSSE 14.0 15.0----29.93-0.02 84.6 88.9----
2024-07-15 07:54 pm S 14.0 15.9----29.94- 84.7 88.9----
2024-07-15 07:48 pmSSE 14.0 15.9----29.94- 84.9 88.9----
2024-07-15 07:42 pm S 13.0 15.9----29.94- 85.1 88.9----
2024-07-15 07:36 pm S 14.0 17.1----29.94- 85.1 88.9----
2024-07-15 07:30 pm S 14.0 15.9----29.94- 85.1 88.9----
2024-07-15 07:24 pm S 12.0 14.0----29.94- 85.6 88.7----
2024-07-15 07:18 pm S 14.0 15.0----29.94- 85.5 88.7----
2024-07-15 07:12 pm S 14.0 15.0----29.94- 85.6 88.7----
2024-07-15 07:06 pm S 13.0 15.0----29.94- 85.6 88.7----
2024-07-15 07:00 pmSSE 13.0 15.0----29.94-0.02- 88.7----
2024-07-15 06:54 pmSSE 13.0 15.9----29.94-- 88.7----
2024-07-15 06:48 pmSSE 13.0 15.0----29.94-------
2024-07-15 06:42 pmSSE 13.0 15.0----29.94-------
2024-07-15 06:36 pmSSE 13.0 15.0----29.94-------
2024-07-15 06:30 pmSSE 14.0 15.9----29.94-------
2024-07-15 06:24 pm S 13.0 15.0----29.94-------
2024-07-15 06:18 pm S 12.0 14.0----29.94- 86.5 88.5----
2024-07-15 06:12 pm S 12.0 19.0----29.94- 86.5 88.3----
2024-07-15 06:06 pm S 13.0 15.9----29.94- 86.7 88.3----
2024-07-15 06:00 pm S 14.0 15.9----29.94-0.05 86.5 88.2----
2024-07-15 05:54 pm S 13.0 15.9----29.94- 86.7 88.2----
2024-07-15 05:48 pmSSE 14.0 15.0----29.94-- 88.2----
2024-07-15 05:42 pm S 12.0 15.0----29.94-- 88.2----
2024-07-15 05:36 pm S 12.0 15.0----29.94-- 88.0----
2024-07-15 05:30 pmSSE 12.0 14.0----29.94- 86.9-----
2024-07-15 05:24 pm S 12.0 14.0----29.95- 86.9-----
2024-07-15 05:18 pm-------29.95- 87.3 88.0----
2024-07-15 05:12 pm-------29.95- 87.3 87.8----
2024-07-15 05:06 pm-------29.95- 87.1 87.8----
2024-07-15 05:00 pm S 13.0 15.0----29.95-0.05 87.3 87.8----
2024-07-15 04:54 pm S 12.0 15.0----29.95- 87.4 87.6----
2024-07-15 04:48 pm S 12.0 15.0------ 87.4 87.6----
2024-07-15 04:42 pm S 13.0 15.0------ 87.4 87.6----
2024-07-15 04:36 pm S 12.0 14.0------ 87.4 87.4----
2024-07-15 04:30 pm S 13.0 15.9----29.96- 87.4 87.4----
2024-07-15 04:24 pm S 13.0 15.9----29.96- 87.4 87.4----
2024-07-15 04:18 pm S 14.0 17.1----29.96- 87.6 87.3----
2024-07-15 04:12 pm S 14.0 15.9----29.96- 87.3 87.3----
2024-07-15 04:06 pm S 13.0 15.0----29.96- 87.3 87.3----
2024-07-15 04:00 pm S 13.0 15.9----29.96-0.06- 87.3----
2024-07-15 03:54 pm S 12.0 15.9----29.97-- 87.1----
2024-07-15 03:48 pm S 13.0 15.9----29.97- 87.3 87.1----
2024-07-15 03:42 pm S 13.0 15.9----29.97- 87.1 87.1----
2024-07-15 03:36 pm S 12.0 15.0----29.98- 87.3 87.1----
2024-07-15 03:30 pm S 12.0 15.0----29.98- 87.3 86.9----
2024-07-15 03:24 pm S 13.0 15.0----29.98- 87.1 86.9----
2024-07-15 03:18 pm S 12.0 15.9----29.98- 87.4 86.9----
2024-07-15 03:12 pm S 14.0 15.9----29.98- 87.3 86.7----
2024-07-15 03:06 pm S 13.0 14.0----29.99- 87.3 86.7----
2024-07-15 03:00 pm S 9.9 14.0----29.99-0.05 87.4 86.7----
2024-07-15 02:54 pm S 9.9 13.0----29.99- 87.6 86.5----
2024-07-15 02:48 pm S 12.0 14.0----29.99-- 86.5----
2024-07-15 02:42 pm S 9.9 12.0----29.99-- 86.5----
2024-07-15 02:36 pm S 11.1 13.0----30.00-- 86.5----
2024-07-15 02:30 pmSSW 8.9 12.0----30.00- 88.3 86.4----
2024-07-15 02:24 pm S 12.0 13.0----30.00- 87.6 86.4----
2024-07-15 02:18 pm S 9.9 13.0----30.00- 87.3 86.4----
2024-07-15 02:12 pm S 11.1 13.0----30.00- 87.3 86.4----
2024-07-15 02:06 pm S 11.1 12.0----30.00- 87.3 86.2----
2024-07-15 02:00 pmSSW 5.1 12.0----30.01-0.04 88.7 86.2----
2024-07-15 01:54 pm S 9.9 13.0----30.01- 87.8 86.2----
2024-07-15 01:48 pm S 11.1 14.0----30.01- 86.9 86.0----
2024-07-15 01:42 pm S 8.9 12.0----30.01- 87.4 86.0----
2024-07-15 01:36 pm S 9.9 12.0----30.01- 87.4 86.0----
2024-07-15 01:30 pmSSW 8.0 12.0----30.01- 87.8 85.8----
2024-07-15 01:24 pmSSW 7.0 12.0----30.01- 87.3 85.8----
2024-07-15 01:18 pm S 11.1 12.0----30.01- 86.5 85.8----
2024-07-15 01:12 pm S 9.9 13.0----30.01- 86.4 85.8----
2024-07-15 01:06 pmSSE 8.0 9.9----30.02- 86.5 85.6----
2024-07-15 01:00 pm S 8.9 11.1----30.02-0.04 86.4 85.6----
2024-07-15 12:54 pmSSE 7.0 9.9----30.02- 86.5 85.6----
2024-07-15 12:48 pm S 7.0 8.9----30.03- 86.4 85.6----
2024-07-15 12:42 pmSSE 6.0 8.0----30.03- 86.2 85.5----
2024-07-15 12:36 pmSSE 7.0 7.0----30.03- 86.0 85.5----
2024-07-15 12:30 pmSSE 7.0 8.9----30.03- 85.5 85.5----
2024-07-15 12:24 pm S 8.0 8.9----30.03- 85.5 85.5----
2024-07-15 12:18 pm S 8.0 8.9----30.03- 85.6 85.5----
2024-07-15 12:12 pm S 6.0 8.0----30.04- 85.5 85.5----
2024-07-15 12:06 pmSSE 5.1 5.1----30.04- 85.3 85.5----
2024-07-15 12:00 pmSSE 5.1 7.0----30.04-0.02 85.1 85.5----
2024-07-15 11:54 amSSE 6.0 7.0----30.04- 85.1 85.3----
2024-07-15 11:48 am S 7.0 8.0----30.04- 84.9 85.3----
2024-07-15 11:42 amSSE 7.0 8.0----30.04- 84.9 85.3----
2024-07-15 11:36 am S 7.0 8.9----30.04- 84.9 85.3----
2024-07-15 11:30 am S 8.0 9.9----30.05- 84.9 85.3----
2024-07-15 11:24 am S 8.9 9.9----30.05- 84.9 85.3----
2024-07-15 11:18 am S 9.9 11.1----30.05- 84.9 85.3----
2024-07-15 11:12 am S 9.9 9.9----30.05- 84.9 85.1----
2024-07-15 11:06 am S 8.9 9.9----30.05- 84.9 85.1----
2024-07-15 11:00 am S 8.0 9.9----30.05+0.00 84.9 84.9----
2024-07-15 10:54 am S 8.9 9.9----30.05- 84.9 84.7----
2024-07-15 10:48 am S 8.9 11.1----30.05- 84.7 84.6----
2024-07-15 10:42 am S 8.0 9.9----30.05- 84.6 84.6----
2024-07-15 10:36 am S 8.9 11.1----30.05- 84.4 84.4----
2024-07-15 10:30 am S 8.9 9.9----30.05- 84.4 84.4----
2024-07-15 10:24 am S 9.9 11.1----30.06- 84.4 84.4----
2024-07-15 10:18 am S 8.9 11.1----30.06- 84.4 84.4----
2024-07-15 10:12 am S 8.9 12.0----30.06- 84.2 84.4----
2024-07-15 10:06 am S 8.9 9.9----30.06- 84.0 84.4----
2024-07-15 10:00 am-------30.06+0.03 83.8 84.4----
2024-07-15 09:54 am-------30.06- 83.7 84.4----
2024-07-15 09:48 am S 8.0 9.9----30.06- 83.7 84.2----
2024-07-15 09:42 am S 8.0 8.9----30.06- 83.5 84.2----
2024-07-15 09:36 am S 7.0 8.0----30.06- 83.1 84.2----
2024-07-15 09:30 am S 6.0 8.0----30.06- 82.9 84.2----
2024-07-15 09:24 am S 6.0 8.0----30.06- 82.9 84.0----
2024-07-15 09:18 am S 7.0 8.0----30.06- 82.9 84.0----
2024-07-15 09:12 am S 7.0 8.0----30.06- 82.9 83.8----
2024-07-15 09:06 am S 7.0 8.0----30.06- 82.8 83.8----
2024-07-15 09:00 am S 6.0 7.0----30.06+0.04 82.8 83.8----
2024-07-15 08:54 am S 7.0 8.0----30.06- 82.8 83.8----
2024-07-15 08:48 am S 7.0 8.0----30.06- 82.9 83.8----
2024-07-15 08:42 am S 7.0 8.0----30.06- 82.8 83.7----
2024-07-15 08:36 am S 7.0 7.0----30.06- 82.8 83.7----
2024-07-15 08:30 am S 7.0 8.0----30.06- 82.6 83.8----
2024-07-15 08:24 am S 7.0 8.0----30.05- 82.6 83.8----
2024-07-15 08:18 am S 7.0 8.9----30.05- 82.4 83.8----
2024-07-15 08:12 am S 7.0 8.9----30.05- 82.4 83.8----
2024-07-15 08:06 am S 8.0 8.9----30.05- 82.2 84.0----
2024-07-15 08:00 am S 8.0 8.9----30.05+0.03 82.0 84.0----
2024-07-15 07:54 am S 7.0 8.0----30.05- 81.9 84.0----
2024-07-15 07:48 am S 7.0 9.9----30.04- 82.0 84.0----
2024-07-15 07:42 am S 8.9 9.9----30.04- 81.9 84.0----
2024-07-15 07:36 am S 8.9 9.9----30.04- 81.9 84.0----
2024-07-15 07:30 am S 8.9 9.9----30.03- 82.0 84.0----
2024-07-15 07:24 am S 8.0 9.9----30.03- 82.2 84.0----
2024-07-15 07:18 am S 8.9 11.1----30.03- 82.2 84.0----
2024-07-15 07:12 am S 8.0 9.9----30.03- 81.9 84.0----
2024-07-15 07:06 am S 8.0 8.9----30.03- 81.9 84.0----
2024-07-15 07:00 am S 8.9 9.9----30.03+0.02 82.2 84.0----
2024-07-15 06:54 am S 8.9 11.1----30.03- 82.0 84.2----